Dewpoint
34 35 37 37 36 36 35 34 33 33 31 31 29 29 29 29 28 27 27 27 27 27 27 27 27 27 28 28 28 28 29 29 29 29 28 27 28 29 30 30 31 31 31 30 31 31 31 31 30 30 30 30 31 31 31 31 32 31 29 28 27 27 28 28 28 28 27 26 26
36 37 38 37 36 36 35 34 32 31 30 29 29 28 28 28 28 27 27 27 27 27 27 27 27 28 28 27 28 28 28 29 28 28 28 27 28 29 30 31 31 31 31 32 31 31 31 31 31 31 31 30 30 30 30 32 32 31 29 28 27 28 28 28 28 28 28 27 27
39 39 38 36 35 34 33 32 31 30 29 29 29 29 29 28 28 27 27 27 27 27 28 27 28 28 28 28 29 30 30 30 29 28 28 28 28 27 27 28 28 29 30 31 30 30 30 31 30 30 30 29 30 29 29 29 29 29 28 27 27 27 27 26 27 28 28 28 28
40 39 37 34 33 32 32 31 31 30 29 30 31 31 30 28 28 27 27 27 27 27 27 27 30 31 32 32 31 30 30 29 28 28 28 28 27 27 27 27 27 28 29 30 30 30 30 31 30 29 29 29 29 29 29 28 28 28 28 28 27 26 26 26 26 26 27 27 28
40 39 36 34 32 32 32 32 31 30 30 31 31 30 29 28 29 28 28 27 27 26 26 27 30 32 34 32 30 29 29 28 27 28 28 28 28 28 29 28 28 28 29 30 31 31 31 31 30 30 30 30 28 27 27 27 28 28 28 28 28 27 27 26 26 26 26 27 28
39 38 37 36 35 34 33 33 31 31 31 32 30 28 27 27 27 26 26 25 25 26 27 28 31 31 31 30 29 29 29 29 30 30 30 31 31 30 29 29 30 30 31 31 31 31 32 31 30 30 30 30 31 30 29 29 29 29 29 29 28 28 28 27 27 27 27 26 27
35 35 35 35 35 34 33 32 32 31 31 31 29 27 27 26 26 26 26 26 26 26 27 28 28 29 29 29 29 29 29 30 30 30 30 30 30 30 30 30 30 29 29 29 30 30 31 31 30 29 29 29 29 30 31 31 31 31 30 30 29 29 29 30 30 29 29 29 29
31 31 30 30 31 31 31 30 30 30 29 28 28 28 27 27 27 26 26 26 26 26 27 27 28 28 28 29 30 30 30 29 29 29 30 29 29 29 30 30 29 29 29 29 29 29 29 30 29 29 29 29 29 29 31 31 32 32 31 31 31 31 31 33 33 32 31 31 31
29 29 29 29 29 30 30 29 29 28 28 27 28 28 28 28 28 28 27 26 26 26 27 28 29 29 29 29 31 31 31 31 30 30 29 29 30 29 29 29 29 29 29 29 29 29 29 28 28 28 29 28 28 29 31 32 32 32 32 31 31 31 31 32 33 32 31 31 32
27 27 27 27 28 28 28 28 28 27 27 26 26 26 27 26 27 27 27 26 28 28 28 29 30 30 30 31 31 31 31 31 30 29 29 28 27 27 27 26 26 26 26 27 27 27 26 26 26 27 28 27 28 29 31 32 32 32 32 30 31 31 32 32 32 32 32 31 33
26 26 26 26 26 26 26 26 26 26 25 25 25 25 26 25 26 26 26 27 28 28 28 30 30 30 30 30 30 30 29 29 28 26 26 25 24 24 24 23 23 23 23 24 25 26 26 26 26 28 28 27 28 29 30 31 31 31 31 31 31 31 31 31 31 31 31 31 32
25 24 24 24 25 25 24 24 24 24 24 24 24 24 24 24 24 25 26 26 26 26 26 27 28 28 27 27 27 26 26 25 25 24 23 22 22 22 22 22 22 22 22 23 25 25 25 26 26 26 26 27 28 29 30 30 30 30 31 31 31 31 31 31 31 31 31 31 31
24 24 23 24 24 24 23 23 24 24 24 24 24 23 23 23 23 24 25 25 25 25 25 25 26 26 25 25 25 24 24 23 23 22 22 22 22 21 21 21 21 22 22 25 27 26 26 26 26 25 25 26 28 29 30 30 30 29 30 30 31 31 30 31 31 31 31 31 31
24 24 23 23 23 24 24 24 24 24 24 23 23 23 23 23 23 24 24 25 25 24 25 25 25 25 25 24 24 24 23 22 22 22 22 22 22 22 22 22 22 22 24 26 28 27 26 26 26 25 25 26 27 28 30 30 30 30 30 30 30 30 30 31 31 31 31 31 31
24 24 23 23 24 24 25 25 24 24 23 23 23 23 23 24 24 24 26 26 26 26 26 26 25 25 26 26 25 24 24 23 22 22 22 22 22 22 23 22 22 23 24 26 28 28 27 26 26 26 26 26 27 27 28 30 30 30 30 30 30 29 29 30 30 30 31 31 31
24 23 23 24 24 25 25 24 24 24 23 23 24 24 24 24 25 26 28 29 29 28 28 27 27 26 27 27 27 26 25 24 24 23 22 22 22 22 23 22 22 23 23 24 26 28 28 28 28 28 28 28 27 27 27 29 30 30 30 30 30 30 30 30 30 30 30 31 31
23 23 24 24 25 25 24 24 24 24 24 24 24 24 25 25 26 27 28 29 30 30 30 30 29 29 29 28 29 28 27 26 25 24 23 23 22 22 22 22 23 23 23 23 25 25 26 27 29 30 30 30 29 28 28 29 30 30 30 30 30 30 30 30 30 30 30 31 30
23 24 24 25 24 24 24 24 24 24 24 25 25 25 26 26 27 27 28 29 31 31 32 31 31 31 31 31 31 30 29 28 26 26 25 24 23 23 23 23 23 23 23 24 24 25 25 25 27 29 30 30 30 30 30 30 30 30 30 30 30 31 31 31 30 30 30 30 30
24 24 25 24 24 24 24 24 24 25 25 25 25 26 26 27 28 29 29 30 31 32 32 33 33 33 32 32 32 31 30 29 28 27 26 25 25 24 24 23 24 24 24 24 25 25 26 27 28 29 30 30 30 30 31 30 30 30 31 31 31 31 31 30 30 29 29 29 28
25 25 24 24 24 24 24 24 25 25 25 26 26 27 27 28 29 29 30 30 31 32 33 33 33 33 33 32 32 32 31 30 30 29 28 27 26 25 25 24 25 25 25 25 26 26 27 27 29 29 29 29 30 30 30 30 30 30 30 31 30 30 29 29 28 28 28 28 28
25 25 24 24 24 24 25 25 25 26 26 27 28 29 30 31 31 31 31 31 32 33 33 33 33 33 32 32 32 32 31 31 31 30 29 28 27 26 26 26 26 26 26 26 27 27 27 27 28 29 29 29 29 29 29 30 30 30 30 30 29 28 28 27 27 27 27 27 27
25 25 25 24 25 25 25 26 26 26 27 28 30 31 32 32 32 32 33 33 33 33 33 32 32 32 32 32 31 31 31 31 31 31 30 29 28 28 28 28 27 27 26 27 27 28 28 29 29 29 29 29 29 29 29 29 29 28 28 27 27 27 27 27 27 27 27 27 27
26 25 25 25 25 25 26 26 26 27 28 29 31 31 33 34 33 33 33 34 33 33 32 32 31 32 32 32 32 32 32 32 31 31 31 30 30 29 29 29 28 28 28 28 28 28 28 29 29 29 29 29 29 29 29 29 28 27 26 26 26 26 26 26 26 27 27 28 28
26 26 26 26 26 26 26 26 27 27 28 28 30 31 32 34 34 34 34 34 34 34 34 33 33 32 32 32 32 32 32 31 31 31 31 30 30 30 29 29 28 28 28 29 29 30 30 29 29 29 28 28 28 28 28 28 27 26 25 25 25 25 25 26 26 26 26 26 27
27 26 26 26 26 26 27 27 27 27 28 28 28 30 31 33 33 34 35 35 35 35 35 35 35 34 33 33 32 32 31 31 31 30 30 30 30 30 29 28 28 28 29 29 29 30 30 29 28 28 27 27 27 27 27 26 26 26 25 25 25 25 25 25 25 26 26 26 26
27 27 27 27 27 27 27 28 28 28 28 28 28 29 29 31 32 33 34 35 35 35 35 35 36 35 34 33 32 31 31 30 30 30 29 29 29 29 28 28 28 29 29 29 29 30 30 31 30 29 28 27 27 26 26 25 26 26 26 25 25 25 25 25 25 25 25 25 26
28 28 28 28 28 28 28 28 28 28 28 28 28 28 28 29 30 32 33 34 35 37 37 36 37 36 35 34 33 32 30 29 29 29 28 28 28 28 27 26 27 28 28 28 29 29 30 31 31 30 29 28 27 26 26 25 26 26 26 26 25 25 25 24 24 24 24 25 25
30 29 29 29 29 29 29 29 29 28 28 28 28 28 29 29 30 31 32 33 34 35 35 35 35 34 32 31 31 30 29 28 27 27 27 28 27 26 26 24 26 27 28 28 29 29 30 30 30 30 29 28 27 26 26 26 25 25 25 25 25 25 25 25 24 24 24 24 24
31 31 31 31 31 30 30 30 29 29 29 29 29 30 31 31 31 31 31 31 32 31 31 31 31 30 28 27 27 28 27 27 26 26 26 26 26 26 24 23 23 24 26 27 29 29 30 30 29 29 29 28 27 26 26 25 25 25 25 25 25 25 25 25 24 24 24 24 23
31 31 31 32 31 31 31 30 30 30 31 30 31 31 31 31 31 31 31 30 30 29 28 28 27 26 26 26 26 26 26 24 24 24 25 26 25 25 24 22 23 24 26 27 29 29 29 29 29 28 28 28 27 26 26 26 26 26 25 25 25 25 25 25 24 24 24 23 23
30 31 31 32 32 32 31 31 31 32 32 31 31 30 30 31 30 30 29 29 28 26 26 25 26 26 26 23 23 22 22 22 22 23 23 24 23 23 22 22 23 25 26 28 29 29 29 28 28 28 27 28 27 26 26 26 26 26 26 26 26 25 25 25 24 24 24 24 24
30 30 31 32 32 32 32 32 32 32 32 31 31 31 31 30 30 29 28 27 26 26 24 23 25 24 22 20 20 19 19 21 22 22 22 22 22 23 23 23 24 26 26 28 28 28 28 28 27 27 27 28 27 27 27 26 26 26 26 26 26 26 25 25 24 24 24 24 24
30 30 31 31 32 32 32 32 32 32 32 32 31 31 31 30 30 29 28 27 26 24 23 22 22 22 20 19 18 18 19 22 22 22 22 22 22 22 23 24 25 26 27 28 28 28 27 27 27 27 27 27 27 27 27 27 27 27 27 26 26 26 26 26 26 25 25 24 24
33 32 31 31 31 32 32 32 32 32 32 32 31 31 31 31 30 29 27 26 24 22 22 21 20 20 19 19 18 20 22 25 23 23 23 23 22 22 23 24 26 27 27 27 27 27 27 27 27 27 27 27 28 28 27 27 28 27 27 27 27 27 27 26 26 26 26 25 25
33 33 32 32 31 32 32 32 32 32 32 32 32 32 31 31 29 27 25 23 22 21 20 20 19 19 20 20 21 22 24 27 26 25 26 26 25 24 24 24 25 26 26 27 27 27 27 27 27 27 28 27 28 28 28 27 28 27 27 27 27 27 27 27 26 26 26 26 26
32 33 35 35 33 32 32 31 31 31 31 33 34 33 31 29 26 25 23 21 20 19 19 19 19 18 18 19 22 23 24 26 26 26 28 28 27 26 24 24 24 25 26 26 27 27 27 27 27 28 28 28 28 28 28 27 27 27 27 27 27 27 27 27 27 27 26 26 26
31 33 35 35 32 31 31 31 31 31 31 33 33 31 29 26 24 22 21 19 18 18 17 17 17 17 17 19 21 21 21 21 23 26 28 29 29 27 25 24 24 25 26 26 27 27 27 27 27 28 27 27 27 27 27 27 27 27 27 27 26 27 27 27 27 27 27 27 27
29 31 33 32 31 31 31 31 31 31 31 31 29 27 25 23 21 20 19 18 17 17 17 17 16 17 17 19 20 21 22 22 24 26 29 29 28 26 25 24 24 25 26 26 27 27 27 27 28 28 27 27 27 27 27 27 27 27 27 26 26 26 27 26 27 27 27 27 27
26 27 27 28 30 31 31 31 31 31 30 29 27 25 22 20 19 18 18 18 17 17 16 16 15 17 18 19 20 22 23 23 25 26 28 29 28 26 25 24 25 25 26 26 27 27 27 28 28 28 28 27 27 28 28 28 28 27 27 27 26 26 27 27 27 27 28 28 29
26 27 27 28 30 30 30 29 29 29 28 26 25 22 20 18 17 18 18 18 17 17 16 16 15 16 17 18 19 21 23 24 25 27 28 28 27 26 26 25 25 26 26 26 27 27 28 28 28 28 28 28 28 28 28 28 28 28 27 27 27 27 27 28 28 29 29 29 30
27 27 28 28 29 29 28 27 27 26 26 24 22 20 18 17 17 17 17 17 16 16 16 15 15 15 17 18 19 22 24 25 24 26 27 27 26 26 26 26 26 26 26 26 27 27 28 28 28 28 28 28 28 28 28 28 28 28 27 27 27 28 28 28 28 29 29 29 30